This is the latest recevied weather packets stored in our database for station/object IR4UCA-3. If no packets are shown the sender has not sent any weather packets the latest 1 day(s).
| Time | Temp. | Humidity | Pressure | Rain* | Wind** | Luminosity | Snow |
|---|---|---|---|---|---|---|---|
| 1777979312 | 16.67° C | 91% | 1012.4 hPa | 0 mm | 2.24 m/s, 62° | - | - |
| 1777979192 | 16.67° C | 91% | 1012.4 hPa | 0 mm | 1.79 m/s, 62° | - | - |
| 1777979071 | 16.11° C | 91% | 1012.6 hPa | 0 mm | 1.34 m/s, 103° | - | - |
| 1777978950 | 16.11° C | 90% | 1012.5 hPa | 0.25 mm | 1.79 m/s, 59° | - | - |
| 1777978847 | 16.11° C | 90% | 1012.5 hPa | 0.25 mm | 1.79 m/s, 61° | - | - |
| 1777978710 | 16.11° C | 90% | 1012.5 hPa | 0.51 mm | 2.68 m/s, 62° | - | - |
| 1777978589 | 16.11° C | 90% | 1012.5 hPa | 0.51 mm | 1.79 m/s, 76° | - | - |
| 1777978470 | 16.11° C | 90% | 1012.6 hPa | 0.51 mm | 2.24 m/s, 76° | - | - |
| 1777978349 | 16.11° C | 90% | 1012.5 hPa | 0.76 mm | 1.34 m/s, 75° | - | - |
| 1777978230 | 16.11° C | 90% | 1012.6 hPa | 0.76 mm | 0.89 m/s, 48° | - | - |
| 1777978109 | 16.11° C | 91% | 1012.6 hPa | 1.02 mm | 1.79 m/s, 54° | - | - |
| 1777977990 | 16.11° C | 91% | 1012.6 hPa | 1.27 mm | 2.68 m/s, 66° | - | - |
| 1777977878 | 16.11° C | 90% | 1012.6 hPa | 1.27 mm | 2.24 m/s, 45° | - | - |
| 1777977754 | 15.56° C | 90% | 1012.7 hPa | 1.27 mm | 1.79 m/s, 59° | - | - |
| 1777977635 | 15.56° C | 90% | 1012.6 hPa | 1.52 mm | 1.79 m/s, 56° | - | - |
| 1777977511 | 15.56° C | 90% | 1012.6 hPa | 1.52 mm | 1.79 m/s, 76° | - | - |
| 1777977389 | 15.56° C | 90% | 1012.7 hPa | 1.52 mm | 1.79 m/s, 82° | - | - |
| 1777977268 | 15.56° C | 90% | 1012.7 hPa | 1.52 mm | 1.79 m/s, 72° | - | - |
| 1777977154 | 15.56° C | 90% | 1012.6 hPa | 1.52 mm | 2.24 m/s, 68° | - | - |
| 1777977033 | 15.56° C | 90% | 1012.6 hPa | 1.52 mm | 2.24 m/s, 59° | - | - |
| 1777976908 | 15.56° C | 90% | 1012.6 hPa | 1.52 mm | 1.34 m/s, 102° | - | - |
| 1777976784 | 15.56° C | 90% | 1012.7 hPa | 1.52 mm | 1.34 m/s, 63° | - | - |
| 1777976663 | 15.56° C | 90% | 1012.7 hPa | 1.52 mm | 1.79 m/s, 65° | - | - |
| 1777976546 | 15.56° C | 90% | 1012.7 hPa | 1.78 mm | 1.79 m/s, 87° | - | - |
| 1777976426 | 15.56° C | 90% | 1012.8 hPa | 1.78 mm | 0.89 m/s, 65° | - | - |
* Rain latest hour (hover to see other rain measurements)
** Current wind speed in m/s (hover to see current wind gust speed)